EST,Max TemperatureF,Mean TemperatureF,Min TemperatureF,Max Dew PointF,MeanDew PointF,Min DewpointF,Max Humidity, Mean Humidity, Min Humidity, Max Sea Level PressureIn, Mean Sea Level PressureIn, Min Sea Level PressureIn, Max VisibilityMiles, Mean VisibilityMiles, Min VisibilityMiles, Max Wind SpeedMPH, Mean Wind SpeedMPH, Max Gust SpeedMPH,PrecipitationIn, CloudCover, Events, WindDirDegrees
2013-2-1,15,12,10,10,8,5,85,78,62,30.11,30.03,29.80,10,3,0,17,10,24,0.02,8,Snow,262
2013-2-2,14,6,-2,7,2,-7,85,77,59,30.09,30.05,29.99,10,7,0,13,6,,0.01,6,Fog-Snow,317
2013-2-3,17,8,-2,11,4,-8,87,77,64,30.03,29.86,29.77,10,5,0,21,4,29,0.05,7,Fog-Snow,306
2013-2-4,15,1,-13,4,-7,-17,100,76,49,30.02,29.97,29.92,10,8,1,10,1,,0.00,4,Snow,318
2013-2-5,21,5,-11,18,8,-18,86,78,71,30.00,29.77,29.64,10,6,0,18,6,24,0.01,6,Fog-Snow,236
2013-2-6,24,8,-9,18,10,-14,93,80,60,30.27,30.21,30.03,10,6,2,13,5,,0.01,7,Snow,90
2013-2-7,26,22,19,22,18,14,92,85,80,30.25,30.17,30.11,8,4,1,16,7,20,0.07,8,Snow,67
2013-2-8,21,10,-6,16,9,-10,87,77,60,30.43,30.27,30.11,10,9,2,16,10,,0.00,4,Snow,14
2013-2-9,26,6,-14,13,-2,-22,87,71,51,30.47,30.37,30.23,10,10,8,7,2,,0.00,1,,132
2013-2-10,33,22,10,31,22,7,93,80,64,30.23,29.88,29.55,10,7,1,15,7,25,0.33,7,Rain-Snow,123
2013-2-11,37,32,25,36,30,19,100,86,74,29.77,29.45,29.34,10,5,1,26,12,40,0.10,8,Rain-Snow,223
2013-2-12,27,26,24,20,19,17,80,74,66,29.95,29.88,29.76,10,7,2,16,12,24,0.00,8,Snow,266
2013-2-13,36,30,24,27,24,20,96,82,70,29.83,29.70,29.65,10,6,0,14,6,22,0.00,7,Fog,216
2013-2-14,35,29,23,32,27,17,96,87,74,29.83,29.67,29.58,8,3,1,25,6,33,0.05,8,Rain-Snow,324
2013-2-15,21,16,12,16,11,4,86,73,60,30.15,30.01,29.85,10,6,1,22,15,28,0.00,8,Snow,303
2013-2-16,16,5,-7,9,1,-13,92,74,56,30.19,30.11,30.04,10,9,2,10,4,,0.00,6,Snow,360
2013-2-17,19,6,-6,10,1,-11,87,71,46,30.23,30.18,30.13,10,10,10,7,1,,0.00,7,,186
2013-2-18,35,24,12,30,16,5,89,68,53,30.12,29.80,29.47,10,8,1,16,10,22,0.05,6,Rain-Snow,141
2013-2-19,37,24,12,36,19,5,96,83,71,29.84,29.49,29.17,7,2,0,31,15,40,0.08,8,Fog-Rain-Snow,284
2013-2-20,16,12,9,9,4,1,74,71,67,30.33,30.08,29.83,10,5,2,22,18,32,0.00,8,Snow,320
2013-2-21,21,14,6,9,5,1,83,72,53,30.49,30.41,30.32,10,10,4,14,7,17,0.00,5,Snow,36
2013-2-22,30,22,15,27,22,10,89,84,79,30.34,30.01,29.82,10,5,1,21,11,31,0.05,8,Snow,97
2013-2-23,32,28,24,26,24,21,93,85,69,29.86,29.79,29.74,10,6,2,10,2,,0.01,8,Snow,247
2013-2-24,34,22,10,27,19,6,93,84,59,30.15,29.95,29.81,10,6,0,12,3,,0.01,7,Fog-Snow,302
2013-2-25,35,31,27,26,23,21,86,76,57,30.21,30.18,30.15,10,10,9,8,1,,0.00,8,,176
2013-2-26,33,27,21,25,23,19,89,76,66,30.19,30.04,29.83,10,10,10,23,7,36,0.00,6,Rain,68
2013-2-27,34,32,30,30,28,25,93,85,75,29.80,29.71,29.67,10,3,1,20,15,29,0.00,8,Snow,52
2013-2-28,32,26,19,29,23,11,88,77,60,30.13,29.85,29.70,10,8,2,21,13,30,0.00,8,Snow,6